Weather History for Orange, TX

Change the Weather History Date:

Monday, February 10, 2014

  Actual Average Record
Temperature  
Mean Temperature 49 °F -  
Max Temperature 60 °F 58 °F 74 °F (1963)
Min Temperature 37 °F 36 °F 24 °F (1973)
Degree Days  
Heating Degree Days 16    
Moisture  
Dew Point 50 °F    
Average Humidity 98    
Maximum Humidity 99    
Minimum Humidity 95    
Precipitation  
Precipitation 0.48 in - - ()
Sea Level Pressure  
Sea Level Pressure 30.08 in    
Wind  
Wind Speed 5 mph (NNE)    
Max Wind Speed 14 mph    
Max Gust Speed 21 mph    
Visibility 3 miles    
Events Fog , Rain    
Averages and records for this station are not official NWS values.
T = Trace of Precipitation, MM = Missing Value Source: NWS Daily Summary

Daily Weather History Graph

Daily Weather History Graph

Search for Another Location

Airport:

Trip Planner

Search our weather history database for the weather conditions in past years. The results will help you decide how hot, cold, wet, or windy it might be!

Date:

Astronomy

Feb. 10, 2014 Rise Set
Actual Time 6:59 AM CST 5:59 PM CST
Civil Twilight 6:34 AM CST 6:24 PM CST
Nautical Twilight 6:06 AM CST 6:52 PM CST
Astronomical Twilight 5:38 AM CST 7:20 PM CST
Moon 2:36 PM CST (2/10) 3:46 AM CST (2/10)
Length of Visible Light 11h 50m
Length of Day
11h 00m
Waxing Gibbous, 85% of the Moon is Illuminated
Feb 10
Waxing Gibbous
Feb 14
Full
Feb 22
Last Quarter
Mar 1
New
Mar 8
First Quarter

Hourly Weather History & Observations

Time (CST) Temp. Windchill Dew Point Humidity Pressure Visibility Wind Dir Wind Speed Gust Speed Precip Events Conditions
12:15 AM 58.1 °F - 57.2 °F 97% 30.07 in 4.0 mi ENE 3.5 mph - N/A   Overcast
12:35 AM 57.6 °F - 56.7 °F 97% 30.06 in 3.0 mi Calm Calm - N/A   Overcast
12:55 AM 57.6 °F - 56.8 °F 97% 30.06 in 2.0 mi ENE 3.5 mph - 0.06 in Rain Heavy Rain
1:15 AM 57.2 °F - 56.5 °F 97% 30.06 in 2.5 mi Calm Calm - 0.01 in Rain Rain
1:35 AM 57.2 °F - 56.5 °F 97% 30.05 in 1.0 mi East 5.8 mph - 0.01 in   Overcast
1:55 AM 57.2 °F - 56.7 °F 98% 30.05 in 0.5 mi Calm Calm - 0.01 in Fog Fog
2:15 AM 57.2 °F - 56.7 °F 98% 30.05 in 0.5 mi East 3.5 mph - 0.01 in Rain Rain
2:35 AM 58.6 °F - 58.1 °F 98% 30.04 in 0.5 mi Calm Calm - 0.02 in   Light Drizzle
2:55 AM 59.0 °F - 58.3 °F 97% 30.03 in 0.5 mi ESE 3.5 mph - 0.02 in Fog Fog
3:15 AM 59.0 °F - 58.5 °F 98% 30.04 in 0.5 mi Calm Calm - N/A Fog Fog
3:35 AM 58.8 °F - 58.1 °F 97% 30.04 in 0.2 mi Calm Calm - N/A Fog Fog
3:55 AM 58.6 °F - 58.1 °F 98% 30.04 in 0.2 mi Calm Calm - N/A Fog Fog
4:15 AM 59.0 °F - 58.3 °F 97% 30.03 in 0.2 mi Calm Calm - N/A Fog Fog
4:35 AM 59.0 °F - 58.5 °F 98% 30.04 in 0.2 mi Calm Calm - N/A Fog Fog
4:55 AM 58.6 °F - 58.1 °F 98% 30.03 in 0.2 mi SE 3.5 mph - N/A Fog Fog
5:15 AM 58.6 °F - 58.1 °F 98% 30.04 in 0.2 mi Calm Calm - N/A Fog Fog
5:35 AM 59.0 °F - 58.5 °F 98% 30.04 in 0.2 mi Calm Calm - N/A Fog Fog
5:55 AM 59.0 °F - 58.3 °F 97% 30.04 in 0.2 mi SSE 4.6 mph - N/A Fog Fog
6:15 AM 59.0 °F - 58.5 °F 98% 30.05 in 0.2 mi Calm Calm - N/A Fog Fog
6:35 AM 59.2 °F - 58.6 °F 98% 30.05 in 0.2 mi Calm Calm - N/A Fog Fog
6:55 AM 59.9 °F - 59.4 °F 98% 30.05 in 0.5 mi Calm Calm - N/A Fog Fog
7:15 AM 59.5 °F - 59.0 °F 98% 30.06 in 0.5 mi Calm Calm - N/A Fog Fog
7:35 AM 59.4 °F - 59.0 °F 99% 30.08 in 0.2 mi Calm Calm - N/A Fog Fog
7:55 AM 59.0 °F - 58.5 °F 98% 30.08 in 0.2 mi East 3.5 mph - N/A Fog Fog
8:15 AM 59.5 °F - 59.0 °F 98% 30.08 in 1.0 mi Calm Calm - N/A   Overcast
8:35 AM 59.9 °F - 59.4 °F 98% 30.08 in 1.5 mi Calm Calm - N/A   Overcast
8:55 AM 60.4 °F - 59.9 °F 98% 30.08 in 1.8 mi North 4.6 mph - N/A   Overcast
9:15 AM 59.5 °F - 59.0 °F 98% 30.10 in 0.8 mi NNE 5.8 mph - N/A   Overcast
9:35 AM 59.9 °F - 59.2 °F 97% 30.10 in 0.2 mi NE 6.9 mph - N/A Fog Fog
9:55 AM 59.9 °F - 59.2 °F 97% 30.10 in 0.2 mi ENE 5.8 mph - N/A Fog Fog
10:15 AM 59.9 °F - 59.2 °F 97% 30.10 in 0.2 mi NNW 4.6 mph - N/A Fog Fog
10:35 AM 58.8 °F - 58.3 °F 98% 30.11 in 0.5 mi North 8.1 mph - N/A Fog Fog
10:55 AM 54.3 °F - 53.8 °F 98% 30.11 in 1.8 mi North 9.2 mph - 0.01 in Rain Light Rain
11:15 AM 52.5 °F - 52.2 °F 99% 30.11 in 2.0 mi North 10.4 mph - 0.01 in Rain Rain
11:35 AM 51.3 °F - 50.9 °F 99% 30.11 in 2.0 mi North 6.9 mph - 0.01 in   Drizzle
11:55 AM 50.0 °F - 49.6 °F 99% 30.11 in 2.0 mi North 8.1 mph - 0.02 in   Light Drizzle
12:15 PM 49.3 °F - 48.9 °F 99% 30.10 in 4.0 mi NNE 11.5 mph 17.3 mph N/A   Overcast
12:35 PM 48.9 °F - 48.6 °F 99% 30.10 in 4.0 mi North 9.2 mph - N/A   Overcast
12:55 PM 47.8 °F - 47.5 °F 99% 30.09 in 4.0 mi North 10.4 mph - N/A   Overcast
1:15 PM 46.9 °F - 46.6 °F 99% 30.09 in 3.0 mi North 8.1 mph - N/A   Overcast
1:35 PM 47.3 °F - 47.1 °F 99% 30.08 in 2.0 mi NNE 9.2 mph - N/A   Overcast
1:55 PM 47.3 °F - 46.8 °F 98% 30.07 in 2.5 mi NNE 11.5 mph - N/A   Overcast
2:15 PM 46.6 °F - 46.4 °F 99% 30.07 in 2.5 mi North 9.2 mph - N/A   Overcast
2:35 PM 45.9 °F 40.8 °F 45.5 °F 99% 30.06 in 4.0 mi North 10.4 mph - N/A   Drizzle
2:55 PM 45.5 °F 40.8 °F 45.3 °F 99% 30.05 in 3.0 mi NNE 9.2 mph - N/A   Overcast
3:15 PM 45.5 °F 41.3 °F 45.0 °F 98% 30.06 in 2.5 mi North 8.1 mph - N/A   Overcast
3:35 PM 44.6 °F 39.2 °F 44.4 °F 99% 30.06 in 2.0 mi North 10.4 mph - N/A   Light Drizzle
3:55 PM 44.1 °F 39.0 °F 43.7 °F 99% 30.06 in 2.5 mi NNE 9.2 mph - N/A Rain Light Rain
4:15 PM 43.5 °F 37.9 °F 43.0 °F 98% 30.07 in 2.5 mi North 10.4 mph - N/A   Overcast
4:35 PM 43.2 °F 37.4 °F 42.8 °F 99% 30.06 in 2.5 mi NNE 10.4 mph - N/A   Light Drizzle
4:55 PM 42.8 °F 38.0 °F 42.3 °F 98% 30.07 in 2.5 mi North 8.1 mph - N/A   Drizzle
5:15 PM 42.4 °F 38.1 °F 42.1 °F 99% 30.08 in 5.0 mi North 6.9 mph - 0.01 in   Light Drizzle
5:35 PM 42.8 °F 38.0 °F 42.3 °F 98% 30.09 in 5.0 mi North 8.1 mph - 0.01 in   Overcast
5:55 PM 41.9 °F 35.4 °F 41.7 °F 99% 30.10 in 4.0 mi North 11.5 mph 17.3 mph 0.01 in   Overcast
6:15 PM 41.9 °F 36.3 °F 41.4 °F 98% 30.10 in 5.0 mi North 9.2 mph - N/A   Overcast
6:35 PM 41.9 °F 36.3 °F 41.4 °F 98% 30.10 in 7.0 mi North 9.2 mph - N/A   Overcast
6:55 PM 41.9 °F 35.4 °F 41.4 °F 98% 30.10 in 5.0 mi North 11.5 mph 18.4 mph N/A   Light Drizzle
7:15 PM 41.5 °F 36.4 °F 41.2 °F 99% 30.10 in 4.0 mi North 8.1 mph - N/A   Overcast
7:35 PM 41.2 °F 34.1 °F 40.6 °F 98% 30.08 in 7.0 mi NNE 12.7 mph 19.6 mph N/A Rain Rain
7:55 PM 40.6 °F 33.0 °F 39.6 °F 96% 30.08 in 7.0 mi NNE 13.8 mph 20.7 mph 0.01 in Rain Rain
8:15 PM 40.5 °F 34.1 °F 39.2 °F 95% 30.08 in 7.0 mi NNE 10.4 mph 19.6 mph 0.01 in Rain Light Rain
8:35 PM 40.3 °F 34.4 °F 39.2 °F 96% 30.11 in 4.0 mi North 9.2 mph 17.3 mph 0.06 in Rain Light Rain
8:55 PM 40.5 °F 37.3 °F 39.4 °F 96% 30.12 in 10.0 mi NNW 4.6 mph - 0.07 in   Light Drizzle
9:15 PM 40.5 °F 35.1 °F 39.4 °F 96% 30.13 in 5.0 mi North 8.1 mph - 0.01 in Rain Rain
9:35 PM 39.7 °F 34.9 °F 38.8 °F 97% 30.13 in 5.0 mi North 6.9 mph - 0.03 in   Drizzle
9:55 PM 39.4 °F 33.2 °F 38.5 °F 97% 30.12 in 5.0 mi North 9.2 mph 16.1 mph 0.05 in Rain Light Rain
10:15 PM 39.2 °F 33.0 °F 38.3 °F 97% 30.13 in 7.0 mi North 9.2 mph - 0.01 in Rain Light Rain
10:35 PM 38.8 °F 32.6 °F 37.8 °F 96% 30.13 in 7.0 mi North 9.2 mph - 0.02 in Rain Light Rain
10:55 PM 38.8 °F 32.1 °F 37.6 °F 95% 30.11 in 10.0 mi NNE 10.4 mph - 0.02 in Rain Rain
11:15 PM 38.7 °F 32.4 °F 37.4 °F 95% 30.12 in 5.0 mi North 9.2 mph - 0.01 in Rain Rain
11:35 PM 38.3 °F 31.4 °F 37.4 °F 97% 30.13 in 2.0 mi North 10.4 mph - 0.10 in Rain Heavy Rain
11:55 PM 37.9 °F 32.1 °F 37.0 °F 97% 30.14 in 2.0 mi North 8.1 mph - 0.20 in Rain Light Rain